2024/01/30 00:00:00,59.7,-0.2
2024/01/30 00:10:00,59.7,-0.2
2024/01/30 00:20:00,59.7,-0.2
2024/01/30 00:30:00,59.7, 0.0
2024/01/30 00:40:00,59.7, 0.1
2024/01/30 00:50:00,59.7, 0.1
2024/01/30 01:00:00,59.6, 0.2
2024/01/30 01:10:00,59.6, 0.2
2024/01/30 01:20:00,59.5, 0.1
2024/01/30 01:30:00,59.5, 0.3
2024/01/30 01:40:00,59.5, 0.1
2024/01/30 01:50:00,59.4, 0.2
2024/01/30 02:00:00,59.4, 0.0
2024/01/30 02:10:00,59.4,-0.4
2024/01/30 02:20:00,59.3,-0.6
2024/01/30 02:30:00,59.3,-0.6
2024/01/30 02:40:00,59.3,-0.9
2024/01/30 02:50:00,59.3,-0.9
2024/01/30 03:00:00,59.2,-1.1
2024/01/30 03:10:00,59.2,-1.2
2024/01/30 03:20:00,59.2,-1.2
2024/01/30 03:30:00,59.2,-1.1
2024/01/30 03:40:00,59.2,-1.5
2024/01/30 03:50:00,59.1,-1.3
2024/01/30 04:00:00,59.1,-1.0
2024/01/30 04:10:00,59.1,-0.8
2024/01/30 04:20:00,59.0,-0.7
2024/01/30 04:30:00,59.0,-0.2
2024/01/30 04:40:00,58.9,-0.3
2024/01/30 04:50:00,58.8,-0.2
2024/01/30 05:00:00,58.8,-0.2
2024/01/30 05:10:00,58.8,-0.3
2024/01/30 05:20:00,58.7,-0.3
2024/01/30 05:30:00,58.7,-0.2
2024/01/30 05:40:00,58.7,-0.2
2024/01/30 05:50:00,58.7,-0.2
2024/01/30 06:00:00,58.6,-0.3
2024/01/30 06:10:00,58.6,-0.2
2024/01/30 06:20:00,58.6,-0.2
2024/01/30 06:30:00,58.5,-0.5
2024/01/30 06:40:00,58.5,-0.3
2024/01/30 06:50:00,58.4,-0.7
2024/01/30 07:00:00,58.4,-0.7
2024/01/30 07:10:00,58.5,-0.9
2024/01/30 07:20:00,58.4,-1.0
2024/01/30 07:30:00,58.4,-1.0
2024/01/30 07:40:00,58.3,-1.2
2024/01/30 07:50:00,58.3,-1.3
2024/01/30 08:00:00,58.4,-1.2
2024/01/30 08:10:00,58.3,-0.9
2024/01/30 08:20:00,58.2,-1.1
2024/01/30 08:30:00,58.2,-1.2
2024/01/30 08:40:00,58.2,-0.8
2024/01/30 08:50:00,58.2,-0.8
2024/01/30 09:00:00,58.2,-0.4
2024/01/30 09:10:00,58.1, 4.8
2024/01/30 09:20:00,58.1, 6.5
2024/01/30 09:30:00,57.9, 7.1
2024/01/30 09:40:00,57.9, 7.7
2024/01/30 09:50:00,58.0, 8.6
2024/01/30 10:00:00,57.7, 9.6
2024/01/30 10:10:00,57.5,10.4
2024/01/30 10:20:00,57.3,10.1
2024/01/30 10:30:00,57.2,12.1
2024/01/30 10:40:00,57.2,11.8
2024/01/30 10:50:00,57.1,11.3
2024/01/30 11:00:00,57.3,13.9
2024/01/30 11:10:00,56.9,13.4
2024/01/30 11:20:00,57.0,12.6
2024/01/30 11:30:00,57.1,11.6
2024/01/30 11:40:00,57.0,12.2
2024/01/30 11:50:00,56.9,12.9
2024/01/30 12:00:00,56.9,13.8
2024/01/30 12:10:00,56.9,13.9
2024/01/30 12:20:00,56.8,14.5
2024/01/30 12:30:00,56.7,14.4
2024/01/30 12:40:00,56.7,16.0
2024/01/30 12:50:00,56.6,16.3
2024/01/30 13:00:00,56.4,17.1
2024/01/30 13:10:00,56.1,17.3
2024/01/30 13:20:00,55.8,18.8
2024/01/30 13:30:00,55.6,19.2
2024/01/30 13:40:00,55.8,14.6
2024/01/30 13:50:00,55.5,13.0
2024/01/30 14:00:00,55.1,16.7
2024/01/30 14:10:00,55.2,14.0
2024/01/30 14:20:00,55.3, 9.6
2024/01/30 14:30:00,55.1, 9.9
2024/01/30 14:40:00,54.9, 9.2
2024/01/30 14:50:00,54.9, 8.2
2024/01/30 15:00:00,54.8, 8.1
2024/01/30 15:10:00,54.7, 8.2
2024/01/30 15:20:00,54.7, 6.5
2024/01/30 15:30:00,54.7, 8.2
2024/01/30 15:40:00,54.8, 6.8
2024/01/30 15:50:00,55.0, 5.8
2024/01/30 16:00:00,54.8, 6.6
2024/01/30 16:10:00,54.7, 7.7
2024/01/30 16:20:00,54.7, 7.0
2024/01/30 16:30:00,54.6, 6.4
2024/01/30 16:40:00,54.6, 6.5
2024/01/30 16:50:00,54.5, 7.3
2024/01/30 17:00:00,54.4, 6.1
2024/01/30 17:10:00,54.3, 3.6
2024/01/30 17:20:00,54.4, 2.7
2024/01/30 17:30:00,54.4, 2.2
2024/01/30 17:40:00,54.3, 2.3
2024/01/30 17:50:00,54.4, 2.0
2024/01/30 18:00:00,54.3, 1.4
2024/01/30 18:10:00,54.2, 1.4
2024/01/30 18:20:00,54.1, 1.4
2024/01/30 18:30:00,54.1, 1.1
2024/01/30 18:40:00,54.0, 1.1
2024/01/30 18:50:00,53.9, 0.9
2024/01/30 19:00:00,53.8, 0.5
2024/01/30 19:10:00,53.7, 0.9
2024/01/30 19:20:00,53.7, 0.7
2024/01/30 19:30:00,53.7, 0.5
2024/01/30 19:40:00,53.6, 0.5
2024/01/30 19:50:00,53.6, 0.5
2024/01/30 20:00:00,53.5, 0.5
2024/01/30 20:10:00,53.5, 0.5
2024/01/30 20:20:00,53.4, 0.5
2024/01/30 20:30:00,53.4, 0.3
2024/01/30 20:40:00,53.3, 0.3
2024/01/30 20:50:00,53.3, 0.4
2024/01/30 21:00:00,53.2, 0.3
2024/01/30 21:10:00,53.2, 0.3
2024/01/30 21:20:00,53.2, 0.3
2024/01/30 21:30:00,53.1, 0.3
2024/01/30 21:40:00,53.1, 0.1
2024/01/30 21:50:00,53.0, 0.6
2024/01/30 22:00:00,53.0, 0.3
2024/01/30 22:10:00,53.0, 0.5
2024/01/30 22:20:00,52.9, 0.5
2024/01/30 22:30:00,52.9, 0.2
2024/01/30 22:40:00,52.9, 0.4
2024/01/30 22:50:00,52.9, 0.3
2024/01/30 23:00:00,52.8, 0.1
2024/01/30 23:10:00,52.8, 0.8
2024/01/30 23:20:00,52.7, 0.5
2024/01/30 23:30:00,52.7, 0.6
2024/01/30 23:40:00,52.7, 0.8
2024/01/30 23:50:00,52.7, 0.5
